Home   Weather   Bad Radkersburg   Past weeks

Flag for Austria Past Weather in Bad Radkersburg, Styria, Austria — Yesterday and Last 2 Weeks

Now
34 °F

Chilly.


Feels Like: 31 °F
Forecast: 38 / 55 °F
Wind: 3 mph from North

Location: Murska Sobota

Current Time: Feb 21, 2017 at 4:28:18 am

Latest Report: Feb 21, 2017 at 3:00 am


Visibility: N/A

Pressure: 30.04 "Hg

Humidity: 91%

Dew Point: 31 °F

Location of Bad RadkersburgLocation

Past Weather in Bad Radkersburg — Graph

°F

Bad Radkersburg Temperature Yesterday

Maximum temperature yesterday: 51 °F (at 4:00 pm)
Minimum temperature yesterday: 29 °F (at 6:00 am)
Average temperature yesterday: 36 °F

High & Low Weather Summary for the Past Weeks

 TemperatureHumidityPressure
High52 °F (Feb 15, 4:00 pm)98% (Feb 18, 7:00 am)30.66 "Hg (Feb 18, 7:00 am)
Low22 °F (Feb 14, 7:00 am)49% (Feb 19, 3:00 pm)29.68 "Hg (Feb 6, 3:00 am)
Average34 °F83%30.34 "Hg
* Reported Feb 6 3:00 am — Feb 21 3:00 am, Bad Radkersburg, Weather by CustomWeather, © 2017

Note: Actual official high and low records may vary slightly from our data, if they occured in-between our weather recording intervals... More about our weather records

Advertising

Bad Radkersburg Weather History for the Previous 24 Hours

Scroll right to see more
 ConditionsComfort  
Time TempWeatherWind HumidityBarometerVisibility
3:00 am
Tue, Feb 21
34 °FChilly.3 mph91%30.04 "HgN/A
2:00 am32 °FChilly.1 mph94%30.06 "HgN/A
1:00 am31 °FChilly.1 mph93%30.08 "HgN/A
12:00 am32 °FChilly.1 mph92%30.09 "HgN/A
11:00 pm
Mon, Feb 20
32 °FChilly.1 mph92%30.11 "HgN/A
10:00 pm32 °FChilly.1 mph90%30.13 "HgN/A
9:00 pm35 °FChilly.2 mph88%30.14 "HgN/A
8:00 pm37 °FChilly.No wind83%30.14 "HgN/A
7:00 pm42 °FClear.2 mph74%30.15 "Hg6 mi
6:00 pm45 °FCool.1 mph68%30.15 "HgN/A
5:00 pm51 °FCool.1 mph51%30.14 "HgN/A
4:00 pm51 °FCool.2 mph50%30.16 "HgN/A
3:00 pm51 °FCool.1 mph56%30.17 "HgN/A
2:00 pmN/ASunny.1 mphN/AN/A6 mi
1:00 pm46 °FFog.1 mph67%30.21 "Hg4 mi
12:00 pm40 °FQuite cool.1 mph77%30.24 "HgN/A
11:00 am37 °FChilly.1 mph85%30.26 "HgN/A
10:00 am35 °FChilly.1 mph87%30.27 "HgN/A
9:00 am33 °FChilly.1 mph91%30.27 "HgN/A
8:00 am30 °FFog.No wind96%30.27 "Hg1 mi
7:00 am29 °FFog.No wind94%30.25 "Hg1 mi
6:00 am29 °FChilly.No wind94%30.24 "HgN/A
5:00 am29 °FChilly.No wind95%30.23 "HgN/A
4:00 am29 °FChilly.1 mph95%30.23 "HgN/A
Weather by CustomWeather, © 2017

See weather overviewHow to use our weather pages